TimeCDT,TemperatureF,Dew PointF,Humidity,Sea Level PressureIn,VisibilityMPH,Wind Direction,Wind SpeedMPH,Gust SpeedMPH,PrecipitationIn,Events,Conditions,WindDirDegrees,DateUTC
12:56 AM,82.0,61.0,49,29.83,-9999.0,SE,6.9,-,N/A,,Unknown,130,2013-08-31 05:56:00
1:56 AM,79.0,61.0,54,29.82,-9999.0,SE,6.9,-,N/A,,Unknown,130,2013-08-31 06:56:00
2:56 AM,78.1,61.0,56,29.81,-9999.0,SE,5.8,-,N/A,,Unknown,130,2013-08-31 07:56:00
3:56 AM,75.0,61.0,62,29.82,-9999.0,Calm,Calm,-,N/A,,Unknown,0,2013-08-31 08:56:00
4:56 AM,70.0,62.1,76,29.81,-9999.0,Calm,Calm,-,N/A,,Unknown,0,2013-08-31 09:56:00
5:56 AM,69.1,62.1,78,29.83,-9999.0,Calm,Calm,-,N/A,,Unknown,0,2013-08-31 10:56:00
6:56 AM,72.0,61.0,68,29.84,-9999.0,Calm,Calm,-,N/A,,Unknown,0,2013-08-31 11:56:00
7:56 AM,75.0,66.9,76,29.85,-9999.0,NE,8.1,-,N/A,,Unknown,40,2013-08-31 12:56:00
8:56 AM,80.1,70.0,71,29.84,-9999.0,ENE,13.8,-,N/A,,Unknown,60,2013-08-31 13:56:00
9:56 AM,84.9,69.1,59,29.83,-9999.0,East,12.7,19.6,N/A,,Unknown,80,2013-08-31 14:56:00
10:56 AM,89.1,64.0,43,29.81,-9999.0,SE,9.2,-,N/A,,Unknown,130,2013-08-31 15:56:00
11:56 AM,91.0,63.0,39,29.81,-9999.0,ESE,6.9,-,N/A,,Unknown,110,2013-08-31 16:56:00
12:56 PM,95.0,61.0,32,29.79,-9999.0,South,9.2,-,N/A,,Unknown,190,2013-08-31 17:56:00
1:56 PM,97.0,60.1,29,29.78,-9999.0,South,5.8,-,N/A,,Unknown,190,2013-08-31 18:56:00
2:56 PM,100.9,57.9,24,29.75,-9999.0,South,11.5,-,N/A,,Unknown,180,2013-08-31 19:56:00
3:56 PM,102.0,55.9,22,29.74,-9999.0,SW,10.4,19.6,N/A,,Unknown,230,2013-08-31 20:56:00
4:56 PM,100.9,57.9,24,29.74,-9999.0,WSW,11.5,-,N/A,,Unknown,240,2013-08-31 21:56:00
5:56 PM,100.9,55.9,22,29.73,-9999.0,SW,5.8,-,N/A,,Unknown,220,2013-08-31 22:56:00
6:56 PM,99.0,59.0,26,29.72,-9999.0,South,4.6,-,N/A,,Unknown,170,2013-08-31 23:56:00
7:56 PM,96.1,59.0,29,29.72,-9999.0,SSE,5.8,-,N/A,,Unknown,150,2013-09-01 00:56:00
8:56 PM,93.9,57.9,30,29.73,-9999.0,ESE,4.6,-,N/A,,Unknown,120,2013-09-01 01:56:00
9:56 PM,91.0,59.0,34,29.75,-9999.0,ESE,5.8,-,N/A,,Unknown,110,2013-09-01 02:56:00
10:56 PM,89.1,60.1,38,29.74,-9999.0,SSE,5.8,-,N/A,,Unknown,150,2013-09-01 03:56:00
11:56 PM,86.0,60.1,41,29.75,-9999.0,SE,5.8,-,N/A,,Unknown,130,2013-09-01 04:56:00